Location: Unspecified
(0.0000°N, 0.0000°E)
Time: 12:52:52
(UTC+00:00)

NOSS 3-2 (C) - Pass Details

Date: 14 June 2023
Orbit: 728 x 1484 km, 63.4° (Epoch: 20 September)

Event Time Altitude Azimuth Distance (km) Brightness Sun altitude
Rises 01:52:18 0° 354° (N) 4,411 7.2 -54.2°
Reaches altitude 10° 01:55:23 10° 2° (N) 3,508 6.6 -53.6°
Enters shadow 01:57:26 18° 10° (N) 2,963 6.2 -53.2°
